Home > Weather > Eidsvoll > Past weeks

Flag for Norway Weather for the Past 2 Weeks in Eidsvoll, Norway

Now
39 °F

Clear.


Feels Like: 39 °F
Forecast: 36 / 51 °F
Wind: 1 mph from North

Location: Oslo Gardermoen Airport

Current Time: May 4, 2016 at 2:45:14 AM

Latest Report: May 4, 2016 at 1:50 AM


Visibility: 10 mi

Pressure: 30.09 "Hg

Humidity: 75%

Dew Point: 32 °F

Location of EidsvollLocation

Historic Weather in Eidsvoll — Graph

°F

Eidsvoll Temperature Yesterday

Maximum temperature yesterday: 48 °F (at 1:20 PM)
Minimum temperature yesterday: 43 °F (at 4:50 AM)
Average temperature yesterday: 46 °F

High & Low Weather Summary for the Past Weeks

 TemperatureHumidityPressure
High55 °F (Apr 21, 2:50 PM)100% (May 1, 1:20 AM)30.24 "Hg (May 1, 1:20 AM)
Low27 °F (Apr 23, 4:50 AM)19% (Apr 21, 2:50 PM)29.39 "Hg (Apr 19, 1:20 AM)
Average41 °F58%29.89 "Hg
* Reported Apr 19 1:20 AM — May 4 1:50 AM, Eidsvoll, Weather by CustomWeather, © 2016

Note: Actual official high and low records may vary slightly from our data, if they occured in-between our weather recording intervals... More about our weather records

Advertising

Eidsvoll Weather History for the Previous 24 Hours

Scroll right to see more
 ConditionsComfort  
Time TempWeatherWind HumidityBarometerVisibility
1:50 AM
Wed, May 4
39 °FClear.1 mph75%30.09 "Hg10 mi
1:20 AM39 °FClear.5 mph75%30.09 "Hg10 mi
12:50 AM41 °FPassing clouds.3 mph70%30.09 "HgN/A
12:20 AM41 °FClear.2 mph70%30.07 "Hg10 mi
11:50 PM
Tue, May 3
43 °FClear.2 mph66%30.07 "Hg10 mi
11:20 PM43 °FClear.2 mph76%30.04 "Hg10 mi
10:50 PM45 °FPassing clouds.3 mph81%30.04 "HgN/A
10:20 PM45 °FClear.5 mph87%30.04 "Hg10 mi
9:50 PM45 °FSunny.No wind87%30.01 "Hg10 mi
9:20 PM46 °FSunny.7 mph82%30.01 "Hg10 mi
8:50 PM48 °FPartly sunny.8 mph76%29.98 "HgN/A
8:20 PM48 °FPartly sunny.9 mph76%29.98 "HgN/A
7:50 PM48 °FPartly sunny.12 mph76%29.98 "HgN/A
7:20 PM48 °FBroken clouds.12 mph76%29.98 "HgN/A
6:50 PM48 °FScattered showers. Broken clouds.10 mph76%29.95 "HgN/A
6:20 PM48 °FBroken clouds.12 mph76%29.95 "HgN/A
5:50 PM48 °FBroken clouds.16 mph76%29.95 "HgN/A
5:20 PM48 °FBroken clouds.16 mph82%29.95 "HgN/A
4:50 PM48 °FBroken clouds.16 mph82%29.95 "HgN/A
4:20 PM48 °FMore clouds than sun.17 mph82%29.92 "HgN/A
3:50 PM48 °FMore clouds than sun.17 mph82%29.92 "HgN/A
3:20 PM48 °FSprinkles. Overcast.16 mph87%29.92 "HgN/A
2:50 PM48 °FDrizzle. Overcast.12 mph87%29.92 "Hg6 mi
2:20 PM48 °FOvercast.12 mph87%29.92 "HgN/A
1:20 PM48 °FLight rain. Partly sunny.9 mph87%29.92 "Hg6 mi
12:50 PM46 °FLight rain. Overcast.9 mph93%29.92 "Hg6 mi
12:20 PM46 °FLight rain. Overcast.7 mph87%29.92 "Hg6 mi
11:50 AM46 °FLight rain. Overcast.9 mph87%29.92 "HgN/A
11:20 AM46 °FLight rain. Broken clouds.10 mph87%29.92 "Hg6 mi
10:50 AM45 °FLight rain. Low clouds.12 mph93%29.92 "Hg6 mi
10:20 AM45 °FDrizzle. More clouds than sun.10 mph93%29.92 "Hg6 mi
9:50 AM45 °FDrizzle. More clouds than sun.9 mph93%29.92 "Hg5 mi
9:20 AM45 °FDrizzle. More clouds than sun.8 mph93%29.92 "Hg4 mi
8:50 AM45 °FDrizzle. More clouds than sun.8 mph93%29.92 "Hg4 mi
8:20 AM45 °FDrizzle. More clouds than sun.6 mph87%29.92 "Hg4 mi
7:50 AM43 °FDrizzle. More clouds than sun.7 mph93%29.92 "Hg4 mi
7:20 AM43 °FDrizzle. More clouds than sun.9 mph93%29.92 "Hg5 mi
6:50 AM43 °FLight rain. Broken clouds.7 mph93%29.92 "Hg6 mi
5:50 AM43 °FLight rain. Passing clouds.6 mph87%29.95 "HgN/A
5:20 AM43 °FLight rain. Passing clouds.5 mph87%29.95 "HgN/A
4:50 AM43 °FLight rain. Passing clouds.6 mph81%29.95 "HgN/A
4:20 AM45 °FLight rain. Passing clouds.6 mph71%29.95 "HgN/A
3:20 AM45 °FOvercast.8 mph61%29.95 "HgN/A
2:50 AM45 °FMostly cloudy.7 mph61%29.98 "HgN/A
2:20 AM45 °FMostly cloudy.6 mph61%29.98 "HgN/A
Weather by CustomWeather, © 2016

See weather overviewHow to use our weather pages